| time (UTC) | temp F | wind direction | speed MPH | gust MPH | rain 1hr in | rain 24hr in | rain mn in | humidity % | barometer mb |
| 20260507053826 | 46 | 355 | 2.0 | 3.0 | 0.00 | 0.00 | 0.00 | 82 | 1016.7 |
| 20260507053320 | 47 | 9 | 0.0 | 3.0 | 0.00 | 0.00 | 0.00 | 82 | 1016.6 |
| 20260507052813 | 47 | 9 | 1.0 | 3.0 | 0.00 | 0.00 | 0.00 | 83 | 1016.6 |
| 20260507052328 | 47 | 15 | 1.0 | 3.0 | 0.00 | 0.00 | 0.00 | 83 | 1016.5 |
| 20260507051826 | 47 | 99 | 0.0 | 3.0 | 0.00 | 0.00 | 0.00 | 84 | 1016.4 |
| 20260507050818 | 46 | 35 | 1.0 | 3.0 | 0.00 | 0.00 | 0.00 | 85 | 1016.4 |
| 20260507050332 | 46 | 5 | 0.0 | 2.0 | 0.00 | 0.00 | 0.00 | 85 | 1016.4 |
| 20260507045825 | 46 | 5 | 0.0 | 0.0 | 0.00 | 0.00 | 0.00 | 86 | 1016.5 |
| 20260507045320 | 46 | 5 | 0.0 | 1.0 | 0.00 | 0.00 | 0.00 | 86 | 1016.5 |
| 20260507044814 | 46 | 5 | 0.0 | 1.0 | 0.00 | 0.00 | 0.00 | 86 | 1016.6 |
| 20260507044329 | 46 | 5 | 0.0 | 1.0 | 0.00 | 0.00 | 0.00 | 85 | 1016.6 |
| 20260507043828 | 46 | 5 | 0.0 | 0.0 | 0.00 | 0.00 | 0.00 | 85 | 1016.6 |
| 20260507043322 | 46 | 5 | 0.0 | 0.0 | 0.00 | 0.00 | 0.00 | 84 | 1016.6 |
| 20260507042816 | 46 | 5 | 0.0 | 0.0 | 0.00 | 0.00 | 0.00 | 83 | 1016.6 |
| 20260507041828 | 47 | 5 | 0.0 | 0.0 | 0.00 | 0.00 | 0.00 | 83 | 1016.6 |
| 20260507040819 | 48 | 5 | 0.0 | 0.0 | 0.00 | 0.00 | 0.00 | 82 | 1016.5 |
| 20260507040314 | 48 | 5 | 0.0 | 0.0 | 0.00 | 0.00 | 0.00 | 81 | 1016.4 |
| 20260507035812 | 48 | 5 | 0.0 | 0.0 | 0.00 | 0.00 | 0.00 | 80 | 1016.3 |
| 20260507035326 | 49 | 5 | 0.0 | 0.0 | 0.00 | 0.00 | 0.00 | 78 | 1016.3 |
| 20260507034820 | 49 | 5 | 0.0 | 0.0 | 0.00 | 0.00 | 0.00 | 77 | 1016.4 |
| 20260507034314 | 49 | 5 | 0.0 | 0.0 | 0.00 | 0.00 | 0.00 | 76 | 1016.2 |
| 20260507033829 | 50 | 5 | 0.0 | 1.0 | 0.00 | 0.00 | 0.00 | 75 | 1016.1 |
| 20260507033324 | 50 | 5 | 0.0 | 1.0 | 0.00 | 0.00 | 0.00 | 75 | 1015.9 |
| 20260507032819 | 50 | 5 | 0.0 | 1.0 | 0.00 | 0.00 | 0.00 | 74 | 1015.9 |
| 20260507032314 | 51 | 5 | 0.0 | 2.0 | 0.00 | 0.00 | 0.00 | 73 | 1015.9 |
| 20260507031812 | 51 | 5 | 0.0 | 2.0 | 0.00 | 0.00 | 0.00 | 72 | 1015.9 |
| 20260507031326 | 52 | 5 | 1.0 | 2.0 | 0.00 | 0.00 | 0.00 | 71 | 1016.0 |
| 20260507030821 | 52 | 5 | 0.0 | 2.0 | 0.00 | 0.00 | 0.00 | 71 | 1016.1 |
| 20260507025813 | 53 | 5 | 2.0 | 4.0 | 0.00 | 0.00 | 0.00 | 70 | 1015.9 |
| 20260507024321 | 53 | 355 | 2.0 | 4.0 | 0.00 | 0.00 | 0.00 | 69 | 1015.9 |
| 20260507023316 | 53 | 11 | 3.0 | 4.0 | 0.00 | 0.00 | 0.00 | 68 | 1015.7 |
| 20260507022830 | 54 | 355 | 2.0 | 4.0 | 0.00 | 0.00 | 0.00 | 68 | 1015.6 |
| 20260507022325 | 54 | 360 | 2.0 | 4.0 | 0.00 | 0.00 | 0.00 | 67 | 1015.6 |
| 20260507021820 | 54 | 5 | 2.0 | 4.0 | 0.00 | 0.00 | 0.00 | 67 | 1015.6 |
| 20260507020811 | 55 | 355 | 2.0 | 5.0 | 0.00 | 0.00 | 0.00 | 66 | 1015.5 |
| 20260507020325 | 55 | 15 | 3.0 | 5.0 | 0.00 | 0.00 | 0.00 | 66 | 1015.4 |
| 20260507015819 | 55 | 9 | 3.0 | 4.0 | 0.00 | 0.00 | 0.00 | 66 | 1015.3 |
| 20260507015316 | 55 | 360 | 2.0 | 4.0 | 0.00 | 0.00 | 0.00 | 66 | 1015.2 |
| 20260507014829 | 55 | 350 | 3.0 | 4.0 | 0.00 | 0.00 | 0.00 | 65 | 1015.2 |
| 20260507014324 | 55 | 10 | 1.0 | 3.0 | 0.00 | 0.00 | 0.00 | 65 | 1015.0 |
| 20260507013340 | 56 | 13 | 1.0 | 3.0 | 0.00 | 0.00 | 0.00 | 65 | 1014.9 |
| 20260507012814 | 56 | 14 | 2.0 | 3.0 | 0.00 | 0.00 | 0.00 | 64 | 1014.9 |
| 20260507012329 | 56 | 24 | 2.0 | 3.0 | 0.00 | 0.00 | 0.00 | 63 | 1014.8 |
| 20260507011323 | 57 | 30 | 2.0 | 4.0 | 0.00 | 0.00 | 0.00 | 60 | 1014.8 |
| 20260507005910 | 59 | 20 | 4.0 | 6.0 | 0.00 | 0.00 | 0.00 | 58 | 1014.7 |
| 20260507002831 | 61 | 26 | 4.0 | 10.0 | 0.00 | 0.00 | 0.00 | 54 | 1014.3 |
| 20260507002406 | 62 | 21 | 7.0 | 10.0 | 0.00 | 0.00 | 0.00 | 53 | 1014.3 |
| 20260507001820 | 62 | 39 | 5.0 | 11.0 | 0.00 | 0.00 | 0.00 | 53 | 1014.2 |
| 20260506234318 | 63 | 38 | 7.0 | 12.0 | 0.00 | 0.00 | 0.00 | 50 | 1014.1 |
| 20260506233833 | 63 | 31 | 6.0 | 11.0 | 0.00 | 0.00 | 0.00 | 50 | 1014.2 |
| 20260506233348 | 64 | 31 | 8.0 | 11.0 | 0.00 | 0.00 | 0.00 | 50 | 1014.1 |
| 20260506232842 | 64 | 30 | 7.0 | 10.0 | 0.00 | 0.00 | 0.00 | 50 | 1014.1 |
| 20260506231820 | 64 | 30 | 6.0 | 13.0 | 0.00 | 0.00 | 0.00 | 51 | 1013.9 |
| 20260506231318 | 64 | 25 | 9.0 | 13.0 | 0.00 | 0.00 | 0.00 | 51 | 1013.8 |
| 20260506230335 | 64 | 35 | 6.0 | 15.0 | 0.00 | 0.00 | 0.00 | 52 | 1013.7 |
| 20260506225830 | 64 | 355 | 10.0 | 15.0 | 0.00 | 0.00 | 0.00 | 51 | 1013.6 |
| 20260506225344 | 64 | 16 | 9.0 | 15.0 | 0.00 | 0.00 | 0.00 | 50 | 1013.5 |
| 20260506222816 | 64 | 31 | 7.0 | 14.0 | 0.00 | 0.00 | 0.00 | 54 | 1013.3 |
| 20260506222329 | 64 | 41 | 9.0 | 13.0 | 0.00 | 0.00 | 0.00 | 51 | 1013.3 |
| 20260506221823 | 63 | 31 | 10.0 | 13.0 | 0.00 | 0.00 | 0.00 | 53 | 1013.3 |
| 20260506221319 | 64 | 339 | 7.0 | 17.0 | 0.00 | 0.00 | 0.00 | 54 | 1013.2 |
| 20260506220830 | 64 | 24 | 11.0 | 17.0 | 0.00 | 0.00 | 0.00 | 51 | 1013.1 |
| 20260506215317 | 63 | 49 | 9.0 | 12.0 | 0.00 | 0.00 | 0.00 | 56 | 1013.0 |
| 20260506214815 | 63 | 34 | 9.0 | 16.0 | 0.00 | 0.00 | 0.00 | 53 | 1013.2 |
| 20260506214330 | 64 | 9 | 10.0 | 16.0 | 0.00 | 0.00 | 0.00 | 53 | 1013.2 |
| 20260506213824 | 65 | 19 | 8.0 | 14.0 | 0.00 | 0.00 | 0.00 | 53 | 1013.3 |
| 20260506213319 | 64 | 59 | 8.0 | 13.0 | 0.00 | 0.00 | 0.00 | 55 | 1013.2 |
| 20260506212813 | 64 | 350 | 8.0 | 14.0 | 0.00 | 0.00 | 0.00 | 54 | 1013.3 |
| 20260506212327 | 64 | 65 | 9.0 | 14.0 | 0.00 | 0.00 | 0.00 | 53 | 1013.3 |
| 20260506211822 | 64 | 355 | 7.0 | 13.0 | 0.00 | 0.00 | 0.00 | 53 | 1013.4 |
| 20260506211317 | 64 | 13 | 9.0 | 15.0 | 0.00 | 0.00 | 0.00 | 53 | 1013.6 |
| 20260506210814 | 64 | 33 | 11.0 | 15.0 | 0.00 | 0.00 | 0.00 | 52 | 1013.5 |
| 20260506210328 | 64 | 60 | 8.0 | 15.0 | 0.00 | 0.00 | 0.00 | 56 | 1013.7 |
| 20260506205823 | 64 | 40 | 10.0 | 15.0 | 0.00 | 0.00 | 0.00 | 55 | 1013.9 |
| 20260506205317 | 63 | 53 | 5.0 | 12.0 | 0.00 | 0.00 | 0.00 | 58 | 1013.9 |
| 20260506204813 | 62 | 39 | 7.0 | 16.0 | 0.00 | 0.00 | 0.00 | 56 | 1014.0 |
| 20260506204327 | 63 | 55 | 10.0 | 15.0 | 0.00 | 0.00 | 0.00 | 55 | 1014.0 |
| 20260506203821 | 63 | 76 | 8.0 | 13.0 | 0.00 | 0.00 | 0.00 | 55 | 1014.0 |
| 20260506203320 | 64 | 28 | 7.0 | 15.0 | 0.00 | 0.00 | 0.00 | 58 | 1014.0 |
| 20260506202814 | 63 | 355 | 11.0 | 15.0 | 0.00 | 0.00 | 0.00 | 58 | 1014.0 |
| 20260506202329 | 63 | 36 | 9.0 | 14.0 | 0.00 | 0.00 | 0.00 | 56 | 1014.0 |
| 20260506201824 | 63 | 17 | 6.0 | 12.0 | 0.00 | 0.00 | 0.00 | 58 | 1014.0 |
| 20260506201319 | 63 | 22 | 7.0 | 13.0 | 0.00 | 0.00 | 0.00 | 57 | 1014.2 |
| 20260506200813 | 63 | 68 | 8.0 | 14.0 | 0.00 | 0.00 | 0.00 | 57 | 1014.3 |
| 20260506200327 | 64 | 31 | 9.0 | 14.0 | 0.00 | 0.00 | 0.00 | 56 | 1014.3 |
| 20260506195821 | 64 | 20 | 9.0 | 16.0 | 0.00 | 0.00 | 0.00 | 54 | 1014.3 |
| 20260506194815 | 63 | 38 | 10.0 | 15.0 | 0.00 | 0.00 | 0.00 | 58 | 1014.3 |
| 20260506194330 | 64 | 348 | 9.0 | 15.0 | 0.00 | 0.00 | 0.00 | 57 | 1014.3 |
| 20260506193824 | 63 | 55 | 8.0 | 14.0 | 0.00 | 0.00 | 0.00 | 58 | 1014.2 |
| 20260506193318 | 63 | 48 | 8.0 | 15.0 | 0.00 | 0.00 | 0.00 | 56 | 1014.5 |
| 20260506192328 | 63 | 54 | 8.0 | 13.0 | 0.00 | 0.00 | 0.00 | 56 | 1014.8 |
| 20260506191823 | 64 | 68 | 6.0 | 13.0 | 0.00 | 0.00 | 0.00 | 54 | 1014.8 |
| 20260506191320 | 64 | 46 | 7.0 | 15.0 | 0.00 | 0.00 | 0.00 | 59 | 1014.8 |
| 20260506190814 | 64 | 68 | 6.0 | 14.0 | 0.00 | 0.00 | 0.00 | 55 | 1014.7 |
| 20260506185825 | 63 | 5 | 4.0 | 14.0 | 0.00 | 0.00 | 0.00 | 59 | 1014.7 |
| 20260506185319 | 63 | 29 | 8.0 | 14.0 | 0.00 | 0.00 | 0.00 | 57 | 1014.7 |
| 20260506184813 | 62 | 94 | 6.0 | 10.0 | 0.00 | 0.00 | 0.00 | 61 | 1014.8 |
| 20260506184327 | 62 | 46 | 7.0 | 10.0 | 0.00 | 0.00 | 0.00 | 58 | 1015.0 |
| 20260506183822 | 62 | 54 | 4.0 | 13.0 | 0.00 | 0.00 | 0.00 | 56 | 1015.0 |
| 20260506183321 | 62 | 15 | 8.0 | 14.0 | 0.00 | 0.00 | 0.00 | 61 | 1015.0 |
| 20260506182331 | 62 | 44 | 5.0 | 11.0 | 0.00 | 0.00 | 0.00 | 61 | 1015.2 |
| 20260506181323 | 61 | 12 | 10.0 | 13.0 | 0.00 | 0.00 | 0.00 | 59 | 1015.2 |
| 20260506175830 | 62 | 75 | 8.0 | 16.0 | 0.00 | 0.00 | 0.00 | 58 | 1015.5 |
| 20260506175325 | 61 | 51 | 9.0 | 16.0 | 0.00 | 0.00 | 0.00 | 63 | 1015.7 |
| 20260506174819 | 62 | 58 | 6.0 | 14.0 | 0.00 | 0.00 | 0.00 | 59 | 1015.9 |
| 20260506174318 | 62 | 52 | 5.0 | 14.0 | 0.00 | 0.00 | 0.00 | 61 | 1015.9 |
| 20260506173812 | 62 | 44 | 6.0 | 12.0 | 0.00 | 0.00 | 0.00 | 59 | 1016.1 |
| 20260506172823 | 61 | 92 | 6.0 | 11.0 | 0.00 | 0.00 | 0.00 | 60 | 1016.4 |
| 20260506172319 | 61 | 13 | 6.0 | 16.0 | 0.00 | 0.00 | 0.00 | 60 | 1016.5 |
| 20260506171813 | 61 | 49 | 10.0 | 16.0 | 0.00 | 0.00 | 0.00 | 60 | 1016.6 |
| 20260506171328 | 60 | 67 | 9.0 | 15.0 | 0.00 | 0.00 | 0.00 | 60 | 1016.7 |
| 20260506170821 | 60 | 78 | 8.0 | 15.0 | 0.00 | 0.00 | 0.00 | 59 | 1016.8 |
| 20260506170318 | 60 | 71 | 8.0 | 14.0 | 0.00 | 0.00 | 0.00 | 60 | 1016.8 |
| 20260506165813 | 60 | 56 | 7.0 | 13.0 | 0.00 | 0.00 | 0.00 | 61 | 1016.7 |
| 20260506165328 | 60 | 68 | 8.0 | 15.0 | 0.00 | 0.00 | 0.00 | 62 | 1016.6 |
| 20260506164822 | 60 | 30 | 8.0 | 15.0 | 0.00 | 0.00 | 0.00 | 61 | 1016.7 |
| 20260506164316 | 60 | 102 | 7.0 | 14.0 | 0.00 | 0.00 | 0.00 | 60 | 1016.4 |
| 20260506163830 | 59 | 61 | 8.0 | 17.0 | 0.00 | 0.00 | 0.00 | 60 | 1016.4 |
| 20260506163325 | 59 | 58 | 10.0 | 17.0 | 0.00 | 0.00 | 0.00 | 59 | 1016.5 |
| 20260506162823 | 60 | 53 | 9.0 | 16.0 | 0.00 | 0.00 | 0.00 | 60 | 1016.5 |
| 20260506161814 | 59 | 39 | 7.0 | 16.0 | 0.00 | 0.00 | 0.00 | 62 | 1016.5 |
| 20260506161329 | 59 | 59 | 9.0 | 16.0 | 0.00 | 0.00 | 0.00 | 61 | 1016.3 |
| 20260506160320 | 59 | 38 | 9.0 | 15.0 | 0.00 | 0.00 | 0.00 | 61 | 1016.0 |
| 20260506155814 | 58 | 57 | 9.0 | 15.0 | 0.00 | 0.00 | 0.00 | 63 | 1015.9 |
| 20260506155329 | 58 | 63 | 8.0 | 14.0 | 0.00 | 0.00 | 0.00 | 62 | 1015.8 |
| 20260506154823 | 58 | 73 | 8.0 | 15.0 | 0.00 | 0.00 | 0.00 | 63 | 1015.5 |
| 20260506153818 | 58 | 60 | 11.0 | 17.0 | 0.00 | 0.00 | 0.00 | 63 | 1015.0 |
| 20260506153312 | 57 | 47 | 9.0 | 14.0 | 0.00 | 0.00 | 0.00 | 66 | 1014.9 |
| 20260506152827 | 56 | 57 | 11.0 | 16.0 | 0.00 | 0.00 | 0.00 | 64 | 1015.0 |
| 20260506151817 | 57 | 63 | 11.0 | 19.0 | 0.00 | 0.00 | 0.00 | 65 | 1014.7 |
| 20260506150828 | 56 | 45 | 8.0 | 15.0 | 0.00 | 0.00 | 0.00 | 67 | 1015.3 |
| 20260506150322 | 56 | 47 | 8.0 | 16.0 | 0.00 | 0.00 | 0.00 | 67 | 1015.2 |
| 20260506145317 | 55 | 44 | 9.0 | 14.0 | 0.00 | 0.00 | 0.00 | 67 | 1015.2 |
| 20260506144831 | 55 | 61 | 9.0 | 13.0 | 0.00 | 0.00 | 0.00 | 68 | 1015.1 |
| 20260506144326 | 54 | 26 | 8.0 | 15.0 | 0.00 | 0.00 | 0.00 | 68 | 1015.0 |
| 20260506143820 | 54 | 70 | 10.0 | 16.0 | 0.00 | 0.00 | 0.00 | 67 | 1014.8 |
| 20260506142326 | 53 | 47 | 11.0 | 17.0 | 0.00 | 0.00 | 0.00 | 71 | 1014.9 |
| 20260506141821 | 53 | 76 | 9.0 | 16.0 | 0.00 | 0.00 | 0.00 | 73 | 1014.8 |
| 20260506141320 | 53 | 52 | 7.0 | 14.0 | 0.00 | 0.00 | 0.00 | 74 | 1014.9 |
| 20260506140813 | 53 | 45 | 9.0 | 15.0 | 0.00 | 0.00 | 0.00 | 73 | 1014.9 |
| 20260506140328 | 52 | 74 | 7.0 | 13.0 | 0.00 | 0.00 | 0.00 | 73 | 1014.9 |
| 20260506135320 | 51 | 74 | 10.0 | 19.0 | 0.00 | 0.00 | 0.00 | 75 | 1015.0 |
| 20260506134814 | 51 | 70 | 11.0 | 20.0 | 0.00 | 0.00 | 0.00 | 75 | 1014.9 |
| 20260506134328 | 51 | 77 | 10.0 | 20.0 | 0.00 | 0.00 | 0.00 | 77 | 1015.0 |
| 20260506133323 | 50 | 76 | 8.0 | 15.0 | 0.00 | 0.00 | 0.00 | 79 | 1015.2 |
| 20260506132818 | 50 | 40 | 11.0 | 18.0 | 0.00 | 0.00 | 0.00 | 78 | 1015.3 |
| 20260506132313 | 50 | 5 | 13.0 | 18.0 | 0.00 | 0.00 | 0.00 | 79 | 1015.3 |
| 20260506131828 | 50 | 45 | 11.0 | 17.0 | 0.00 | 0.00 | 0.00 | 80 | 1015.0 |
| 20260506131322 | 50 | 69 | 11.0 | 15.0 | 0.00 | 0.00 | 0.00 | 81 | 1014.9 |
| 20260506130816 | 50 | 42 | 10.0 | 16.0 | 0.00 | 0.00 | 0.00 | 81 | 1015.1 |
| 20260506130331 | 50 | 61 | 9.0 | 16.0 | 0.00 | 0.00 | 0.00 | 82 | 1015.2 |
| 20260506125825 | 50 | 24 | 9.0 | 14.0 | 0.00 | 0.00 | 0.00 | 82 | 1015.2 |
| 20260506125323 | 49 | 23 | 9.0 | 15.0 | 0.00 | 0.00 | 0.00 | 83 | 1015.3 |
| 20260506124818 | 49 | 28 | 8.0 | 16.0 | 0.00 | 0.00 | 0.00 | 82 | 1015.1 |
| 20260506123829 | 49 | 49 | 10.0 | 17.0 | 0.00 | 0.00 | 0.00 | 83 | 1014.8 |
| 20260506123323 | 49 | 36 | 13.0 | 16.0 | 0.00 | 0.00 | 0.00 | 83 | 1014.6 |
| 20260506122818 | 49 | 60 | 8.0 | 15.0 | 0.00 | 0.00 | 0.00 | 84 | 1014.6 |
| 20260506122332 | 49 | 28 | 8.0 | 17.0 | 0.00 | 0.00 | 0.00 | 84 | 1014.5 |
| 20260506121826 | 49 | 42 | 10.0 | 17.0 | 0.00 | 0.00 | 0.00 | 84 | 1014.2 |
| 20260506121325 | 49 | 30 | 11.0 | 16.0 | 0.00 | 0.00 | 0.00 | 84 | 1014.4 |
| 20260506120819 | 49 | 11 | 10.0 | 15.0 | 0.00 | 0.00 | 0.00 | 84 | 1014.5 |
| 20260506120314 | 49 | 360 | 8.0 | 14.0 | 0.00 | 0.00 | 0.00 | 84 | 1014.5 |
| 20260506115827 | 49 | 41 | 7.0 | 13.0 | 0.00 | 0.00 | 0.00 | 84 | 1014.5 |
| 20260506115322 | 49 | 25 | 7.0 | 14.0 | 0.00 | 0.00 | 0.00 | 84 | 1014.4 |
| 20260506114332 | 49 | 32 | 8.0 | 13.0 | 0.00 | 0.00 | 0.00 | 84 | 1014.5 |
| 20260506113826 | 49 | 332 | 8.0 | 12.0 | 0.00 | 0.00 | 0.00 | 84 | 1014.6 |
| 20260506113325 | 49 | 11 | 5.0 | 12.0 | 0.00 | 0.00 | 0.00 | 84 | 1014.6 |
| 20260506112820 | 49 | 28 | 7.0 | 13.0 | 0.00 | 0.00 | 0.00 | 84 | 1014.5 |
| 20260506112315 | 49 | 17 | 5.0 | 13.0 | 0.00 | 0.00 | 0.00 | 84 | 1014.3 |
| 20260506110319 | 49 | 332 | 5.0 | 12.0 | 0.00 | 0.00 | 0.00 | 83 | 1014.1 |
| 20260506105813 | 49 | 34 | 6.0 | 13.0 | 0.00 | 0.00 | 0.00 | 83 | 1013.9 |
| 20260506105328 | 49 | 15 | 6.0 | 12.0 | 0.00 | 0.00 | 0.00 | 83 | 1013.9 |
| 20260506104826 | 49 | 20 | 7.0 | 12.0 | 0.00 | 0.00 | 0.00 | 83 | 1014.0 |
| 20260506104320 | 49 | 29 | 5.0 | 11.0 | 0.00 | 0.00 | 0.00 | 83 | 1013.9 |
| 20260506103815 | 49 | 355 | 7.0 | 11.0 | 0.00 | 0.00 | 0.00 | 83 | 1014.1 |
| 20260506103329 | 49 | 27 | 7.0 | 12.0 | 0.00 | 0.00 | 0.00 | 83 | 1013.9 |
| 20260506102824 | 49 | 327 | 6.0 | 10.0 | 0.00 | 0.00 | 0.00 | 83 | 1013.8 |
| 20260506102318 | 49 | 355 | 7.0 | 12.0 | 0.00 | 0.00 | 0.00 | 82 | 1013.7 |
| 20260506101812 | 49 | 348 | 5.0 | 12.0 | 0.00 | 0.00 | 0.00 | 82 | 1013.4 |
| 20260506101331 | 49 | 360 | 5.0 | 12.0 | 0.00 | 0.00 | 0.00 | 82 | 1013.4 |
| 20260506100826 | 49 | 349 | 6.0 | 13.0 | 0.00 | 0.00 | 0.00 | 81 | 1013.3 |
| 20260506100320 | 49 | 360 | 8.0 | 13.0 | 0.00 | 0.00 | 0.00 | 81 | 1013.2 |
| 20260506095330 | 49 | 355 | 6.0 | 14.0 | 0.00 | 0.00 | 0.00 | 82 | 1012.9 |
| 20260506094824 | 49 | 5 | 7.0 | 13.0 | 0.00 | 0.00 | 0.00 | 82 | 1012.8 |
| 20260506094319 | 49 | 355 | 7.0 | 13.0 | 0.00 | 0.00 | 0.00 | 81 | 1012.6 |
| 20260506093814 | 49 | 360 | 8.0 | 14.0 | 0.00 | 0.00 | 0.00 | 81 | 1012.2 |
| 20260506092827 | 49 | 36 | 10.0 | 14.0 | 0.00 | 0.00 | 0.00 | 81 | 1012.0 |
| 20260506092322 | 49 | 43 | 7.0 | 13.0 | 0.00 | 0.00 | 0.00 | 81 | 1011.7 |
| 20260506091815 | 49 | 24 | 7.0 | 12.0 | 0.00 | 0.00 | 0.00 | 81 | 1011.7 |
| 20260506091330 | 49 | 5 | 8.0 | 12.0 | 0.00 | 0.00 | 0.00 | 81 | 1011.6 |
| 20260506090824 | 49 | 30 | 7.0 | 11.0 | 0.00 | 0.00 | 0.00 | 82 | 1011.6 |
| 20260506090319 | 49 | 15 | 8.0 | 11.0 | 0.00 | 0.00 | 0.00 | 82 | 1011.4 |
| 20260506085813 | 49 | 19 | 5.0 | 11.0 | 0.00 | 0.00 | 0.00 | 82 | 1011.4 |
| 20260506084828 | 49 | 5 | 6.0 | 11.0 | 0.00 | 0.00 | 0.00 | 81 | 1011.2 |
| 20260506084323 | 49 | 30 | 6.0 | 11.0 | 0.00 | 0.00 | 0.00 | 81 | 1011.2 |
| 20260506082830 | 50 | 49 | 7.0 | 14.0 | 0.00 | 0.00 | 0.00 | 81 | 1011.1 |
| 20260506081822 | 50 | 25 | 6.0 | 11.0 | 0.00 | 0.00 | 0.00 | 81 | 1011.0 |
| 20260506081316 | 50 | 51 | 7.0 | 11.0 | 0.00 | 0.00 | 0.00 | 80 | 1011.0 |
| 20260506080815 | 50 | 43 | 5.0 | 10.0 | 0.00 | 0.00 | 0.00 | 80 | 1011.1 |
| 20260506080331 | 50 | 16 | 5.0 | 12.0 | 0.00 | 0.00 | 0.00 | 80 | 1011.2 |
| 20260506073318 | 50 | 21 | 8.0 | 11.0 | 0.00 | 0.00 | 0.00 | 80 | 1011.2 |
| 20260506072817 | 50 | 30 | 6.0 | 13.0 | 0.00 | 0.00 | 0.00 | 80 | 1011.2 |
| 20260506072331 | 50 | 31 | 6.0 | 13.0 | 0.00 | 0.00 | 0.00 | 80 | 1011.0 |
| 20260506071322 | 50 | 53 | 4.0 | 13.0 | 0.00 | 0.00 | 0.00 | 80 | 1010.8 |
| 20260506070816 | 50 | 26 | 9.0 | 13.0 | 0.00 | 0.00 | 0.00 | 79 | 1010.5 |
| 20260506070329 | 50 | 47 | 7.0 | 14.0 | 0.00 | 0.00 | 0.00 | 79 | 1010.6 |
| 20260506062328 | 51 | 63 | 9.0 | 17.0 | 0.00 | 0.00 | 0.00 | 79 | 1010.7 |
| 20260506061320 | 51 | 65 | 11.0 | 18.0 | 0.00 | 0.00 | 0.00 | 79 | 1010.7 |
| 20260506060819 | 51 | 65 | 11.0 | 18.0 | 0.00 | 0.00 | 0.00 | 78 | 1010.8 |
| 20260506060313 | 50 | 84 | 8.0 | 18.0 | 0.00 | 0.00 | 0.00 | 79 | 1010.9 |